Вернуться в каталог

HULIANWANG DIGUI-88

АктивенСвязьLEO
NORAD 65996·PAYLOAD·🇨🇳 China

Запущен Oct 16, 2025 с Wenchang Space Launch Site

Loading…

Ближайшие Пролёты (ближайшие 24 часа)

TLE

СвежийSource: Space-Track

Эпоха: Sep 14, 2026, 13:29 UTC

1 65996U 25231B   26257.56189856 -.00000098  00000-0  56659-4 0  9991
2 65996  49.9972 215.3100 0000396  38.8068 321.2832 13.29326319 44772

Отслеживайте HULIANWANG DIGUI-88 в реальном времени с AllMySat

Download on the App Store